N8AAU Weather Reports


time (UTC)temp
C
wind
direction
speed
KPH
gust
KPH
rain 1hr
cm
rain 24hr
cm
rain mn
cm
humidity
%
barometer
mb
20260502130500 5 348 0.0 1.6 0.00 0.00 0.00 68 1017.5
20260502123004 3 317 0.0 4.8 0.00 0.00 0.00 73 1017.4
20260502122500 3 312 0.0 4.8 0.00 0.00 0.00 74 1017.4
20260502122004 3 319 0.0 4.8 0.00 0.00 0.00 74 1017.4
20260502120959 3 333 0.0 0.0 0.00 0.00 0.00 76 1017.4
20260502120501 3 300 0.0 3.2 0.00 0.00 0.00 77 1017.4
20260502114505 2 19 0.0 0.0 0.00 0.00 0.00 78 1017.3
20260502114000 2 19 0.0 0.0 0.00 0.00 0.00 78 1017.2
20260502113500 2 19 0.0 0.0 0.00 0.00 0.00 78 1017.2
20260502113004 2 19 0.0 0.0 0.00 0.00 0.00 77 1017.1
20260502112500 2 19 0.0 0.0 0.00 0.00 0.00 77 1017.1
20260502112000 2 19 0.0 0.0 0.00 0.00 0.00 76 1017.0
20260502111505 2 19 0.0 0.0 0.00 0.00 0.00 76 1017.0
20260502111000 2 19 0.0 0.0 0.00 0.00 0.00 76 1016.9
20260502110500 2 19 0.0 0.0 0.00 0.00 0.00 76 1016.9
20260502110004 2 19 0.0 0.0 0.00 0.00 0.00 75 1016.9
20260502105004 2 19 0.0 0.0 0.00 0.00 0.00 75 1016.8
20260502104504 2 19 0.0 0.0 0.00 0.00 0.00 75 1016.8
20260502103959 2 19 0.0 0.0 0.00 0.00 0.00 75 1016.8
20260502102459 2 19 0.0 0.0 0.00 0.00 0.00 74 1016.7
20260502101500 2 19 0.0 0.0 0.00 0.00 0.00 74 1016.7
20260502100959 2 19 0.0 0.0 0.00 0.00 0.00 75 1016.7
20260502100459 2 19 0.0 0.0 0.00 0.00 0.00 75 1016.6
20260502091500 2 19 0.0 0.0 0.00 0.00 0.00 74 1016.6
20260502090959 2 19 0.0 0.0 0.00 0.00 0.00 74 1016.5
20260502090503 2 19 0.0 0.0 0.00 0.00 0.00 74 1016.5
20260502071500 2 19 0.0 0.0 0.00 0.00 0.00 74 1016.2
20260502070959 2 19 0.0 0.0 0.00 0.00 0.00 74 1016.3
20260502070458 2 19 0.0 0.0 0.00 0.00 0.00 74 1016.2
20260502065959 2 19 0.0 0.0 0.00 0.00 0.00 75 1016.2
20260502065500 2 19 0.0 0.0 0.00 0.00 0.00 74 1016.3
20260502064959 2 19 0.0 0.0 0.00 0.00 0.00 74 1016.3
20260502064459 2 19 0.0 0.0 0.00 0.00 0.00 74 1016.4
20260502063959 2 19 0.0 0.0 0.00 0.00 0.00 74 1016.4
20260502062959 3 19 0.0 0.0 0.00 0.00 0.00 73 1016.5
20260502062458 3 19 0.0 0.0 0.00 0.00 0.00 73 1016.4
20260502061504 3 19 0.0 0.0 0.00 0.00 0.00 73 1016.5
20260502060503 3 19 0.0 0.0 0.00 0.00 0.00 72 1016.6
20260502060004 3 19 0.0 0.0 0.00 0.00 0.00 72 1016.7
20260502055459 3 19 0.0 0.0 0.00 0.00 0.00 71 1016.7
20260502054958 3 19 0.0 0.0 0.00 0.00 0.00 71 1016.7
20260502054459 3 19 0.0 0.0 0.00 0.00 0.00 71 1016.7
20260502053459 3 19 0.0 0.0 0.00 0.00 0.00 71 1016.7
20260502053000 3 19 0.0 0.0 0.00 0.00 0.00 71 1016.7
20260502052459 3 19 0.0 0.0 0.00 0.00 0.00 71 1016.7
20260502051959 3 19 0.0 0.0 0.00 0.00 0.00 71 1016.7
20260502051459 3 19 0.0 0.0 0.00 0.00 0.00 71 1016.7
20260502050958 3 19 0.0 0.0 0.00 0.00 0.00 70 1016.6
20260502050458 3 29 0.0 0.0 0.00 0.00 0.00 71 1016.5
20260502045458 3 86 0.0 0.0 0.00 0.00 0.00 70 1016.4
20260502044959 3 86 0.0 0.0 0.00 0.00 0.00 70 1016.4
20260502044459 3 90 0.0 0.0 0.00 0.00 0.00 70 1016.4
20260502043958 3 90 0.0 0.0 0.00 0.00 0.00 70 1016.3
20260502043458 3 90 0.0 0.0 0.00 0.00 0.00 70 1016.3
20260502042959 3 90 0.0 0.0 0.00 0.00 0.00 71 1016.3
20260502042459 3 90 0.0 0.0 0.00 0.00 0.00 70 1016.1
20260502041959 3 90 0.0 0.0 0.00 0.00 0.00 70 1016.0
20260502041005 3 90 0.0 0.0 0.00 0.00 0.00 70 1016.0
20260502040504 3 90 0.0 0.0 0.00 0.00 0.00 70 1016.1
20260502040008 3 90 0.0 0.0 0.00 0.00 0.00 70 1016.1
20260502035504 3 90 0.0 0.0 0.00 0.00 0.00 69 1016.1
20260502035005 3 90 0.0 0.0 0.00 0.00 0.00 70 1016.1
20260502034006 3 92 0.0 0.0 0.00 0.00 0.00 70 1016.1
20260502033505 3 84 0.0 0.0 0.00 0.00 0.00 70 1016.2
20260502033006 3 80 0.0 0.0 0.00 0.00 0.00 70 1016.2
20260502032505 3 91 0.0 0.0 0.00 0.00 0.00 71 1016.1
20260502032004 3 77 0.0 0.0 0.00 0.00 0.00 70 1016.2
20260502031505 3 26 0.0 0.0 0.00 0.00 0.00 70 1016.1
20260502031004 3 54 0.0 0.0 0.00 0.00 0.00 70 1016.1
20260502030504 3 18 0.0 8.0 0.00 0.00 0.00 70 1016.1
20260502025504 4 59 0.0 1.6 0.00 0.00 0.00 70 1016.1
20260502025004 4 9 0.0 1.6 0.00 0.00 0.00 70 1016.0
20260502024504 4 20 0.0 0.0 0.00 0.00 0.00 69 1016.1
20260502024004 4 11 0.0 0.0 0.00 0.00 0.00 69 1016.1
20260502023504 4 90 0.0 0.0 0.00 0.00 0.00 70 1016.0
20260502023005 4 81 0.0 0.0 0.00 0.00 0.00 69 1015.9
20260502021505 5 84 0.0 0.0 0.00 0.00 0.00 68 1015.6
20260502021004 5 81 0.0 0.0 0.00 0.00 0.00 68 1015.5
20260502020504 5 80 0.0 0.0 0.00 0.00 0.00 67 1015.5
20260502020005 5 80 0.0 0.0 0.00 0.00 0.00 67 1015.4
20260502015505 5 82 0.0 0.0 0.00 0.00 0.00 67 1015.3
20260502015004 5 80 0.0 0.0 0.00 0.00 0.00 66 1015.3
20260502014505 5 87 0.0 0.0 0.00 0.00 0.00 66 1015.2
20260502014005 5 90 0.0 0.0 0.00 0.00 0.00 66 1015.2
20260502013505 5 90 0.0 4.8 0.00 0.00 0.00 65 1015.2
20260502013006 6 89 0.0 4.8 0.00 0.00 0.00 64 1015.1
20260502012504 6 86 0.0 6.4 0.00 0.00 0.00 64 1015.0
20260502011505 6 73 0.0 0.0 0.00 0.00 0.00 60 1014.9
20260502011005 6 9 0.0 0.0 0.00 0.00 0.00 60 1014.8
20260502010505 6 9 0.0 0.0 0.00 0.00 0.00 60 1014.7
20260502010006 6 16 0.0 0.0 0.00 0.00 0.00 59 1014.7
20260502005505 6 360 0.0 0.0 0.00 0.00 0.00 60 1014.6
20260502005004 6 26 0.0 0.0 0.00 0.00 0.00 59 1014.5
20260502004505 6 26 0.0 0.0 0.00 0.00 0.00 60 1014.6
20260502004005 7 26 0.0 0.0 0.00 0.00 0.00 60 1014.5
20260502003504 7 27 0.0 0.0 0.00 0.00 0.00 60 1014.5
20260502003004 7 27 0.0 0.0 0.00 0.00 0.00 60 1014.5
20260502002504 7 26 0.0 0.0 0.00 0.00 0.00 60 1014.5
20260502001504 7 26 0.0 0.0 0.00 0.00 0.00 59 1014.4
20260502001004 7 15 0.0 4.8 0.00 0.00 0.00 59 1014.3
20260502000504 7 329 0.0 6.4 0.00 0.00 0.00 59 1014.3
20260502000005 7 13 0.0 6.4 0.00 0.00 0.00 58 1014.3
20260501235505 7 299 0.0 6.4 0.00 0.00 0.00 59 1014.3
20260501235004 7 11 0.0 6.4 0.00 0.00 0.00 59 1014.2
20260501234505 7 5 0.0 6.4 0.00 0.00 0.00 58 1014.2
20260501234004 7 311 0.0 1.6 0.00 0.00 0.00 58 1014.1
20260501233504 7 311 0.0 1.6 0.00 0.00 0.00 57 1014.1
20260501233005 7 215 0.0 3.2 0.00 0.00 0.00 57 1014.1
20260501232504 7 346 0.0 3.2 0.00 0.00 0.00 55 1014.1
20260501232004 7 307 0.0 0.0 0.00 0.00 0.00 55 1014.1
20260501231505 7 26 0.0 0.0 0.00 0.00 0.00 56 1014.1
20260501230504 8 312 0.0 3.2 0.00 0.00 0.00 55 1014.1
20260501225004 8 330 0.0 4.8 0.00 0.00 0.00 54 1014.1
20260501224505 8 355 0.0 6.4 0.00 0.00 0.00 53 1014.0
20260501224004 8 21 0.0 0.0 0.00 0.00 0.00 52 1014.0
20260501223005 8 297 0.0 0.0 0.00 0.00 0.00 51 1013.8
20260501222505 8 297 0.0 0.0 0.00 0.00 0.00 50 1013.8
20260501221505 8 13 0.0 0.0 0.00 0.00 0.00 51 1013.7
20260501221004 8 327 0.0 0.0 0.00 0.00 0.00 52 1013.6
20260501220504 8 5 0.0 6.4 0.00 0.00 0.00 52 1013.6
20260501220004 8 28 0.0 1.6 0.00 0.00 0.00 51 1013.6
20260501215504 8 12 0.0 1.6 0.00 0.00 0.00 52 1013.6
20260501215004 8 5 0.0 1.6 0.00 0.00 0.00 53 1013.5
20260501214004 8 304 0.0 3.2 0.00 0.00 0.00 52 1013.5
20260501213504 8 319 0.0 0.0 0.00 0.00 0.00 51 1013.4
20260501213005 8 317 0.0 0.0 0.00 0.00 0.00 51 1013.4
20260501212505 8 315 0.0 0.0 0.00 0.00 0.00 51 1013.3
20260501211503 8 350 0.0 12.9 0.00 0.00 0.00 51 1013.3
20260501211005 9 355 0.0 12.9 0.00 0.00 0.00 50 1013.2
20260501205504 9 26 0.0 14.5 0.00 0.00 0.00 51 1013.1
20260501205004 9 11 0.0 14.5 0.00 0.00 0.00 52 1013.1
20260501204505 9 355 0.0 0.0 0.00 0.00 0.00 52 1013.1
20260501204004 9 5 0.0 0.0 0.00 0.00 0.00 51 1013.0
20260501203504 9 355 0.0 9.7 0.00 0.00 0.00 50 1013.0
20260501202504 10 19 0.0 1.6 0.00 0.00 0.00 47 1013.0
20260501202004 10 26 0.0 12.9 0.00 0.00 0.00 51 1013.1
20260501195505 10 259 0.0 9.7 0.00 0.00 0.00 46 1013.0
20260501195004 10 284 0.0 9.7 0.00 0.00 0.00 46 1013.0
20260501194504 9 275 0.0 4.8 0.00 0.00 0.00 45 1013.0
20260501194004 9 22 0.0 4.8 0.00 0.00 0.00 49 1012.9
20260501193005 9 5 0.0 8.0 0.00 0.00 0.00 50 1012.8
20260501192505 9 360 0.0 4.8 0.00 0.00 0.00 49 1012.8
20260501192005 9 328 0.0 3.2 0.00 0.00 0.00 51 1012.9
20260501191004 8 265 0.0 0.0 0.00 0.00 0.00 52 1012.9
20260501190005 8 349 0.0 0.0 0.00 0.00 0.00 51 1012.8
20260501185504 8 349 0.0 1.6 0.00 0.00 0.00 53 1012.8
20260501185004 8 5 0.0 1.6 0.00 0.00 0.00 52 1012.8
20260501183504 8 303 0.0 1.6 0.00 0.00 0.00 50 1012.6
20260501183005 9 13 0.0 4.8 0.00 0.00 0.00 51 1012.6
20260501182500 9 52 0.0 4.8 0.00 0.00 0.00 51 1012.5
20260501182000 9 5 0.0 6.4 0.00 0.00 0.00 50 1012.5
20260501181504 9 22 0.0 0.0 0.00 0.00 0.00 50 1012.4
20260501181000 9 18 0.0 0.0 0.00 0.00 0.00 49 1012.4
20260501180500 9 5 0.0 0.0 0.00 0.00 0.00 50 1012.4
20260501180005 9 15 0.0 6.4 0.00 0.00 0.00 50 1012.3
20260501175505 8 309 0.0 1.6 0.00 0.00 0.00 51 1012.4
20260501175004 8 344 0.0 1.6 0.00 0.00 0.00 51 1012.3
20260501174504 8 5 0.0 4.8 0.00 0.00 0.00 54 1012.4
20260501174006 8 5 0.0 4.8 0.00 0.00 0.00 54 1012.4
20260501173504 8 58 0.0 1.6 0.00 0.00 0.00 54 1012.4
20260501171504 8 82 0.0 0.0 0.00 0.00 0.00 55 1012.5
20260501171004 8 59 0.0 0.0 0.00 0.00 0.00 58 1012.5
20260501170504 8 18 0.0 8.0 0.00 0.00 0.00 56 1012.5
20260501170005 8 19 0.0 8.0 0.00 0.00 0.00 57 1012.5
20260501165505 8 14 0.0 0.0 0.00 0.00 0.00 58 1012.5
20260501165005 8 17 0.0 0.0 0.00 0.00 0.00 59 1012.5
20260501164505 8 46 0.0 0.0 0.00 0.00 0.00 62 1012.6
20260501163504 8 14 0.0 8.0 0.00 0.00 0.00 63 1012.7
20260501163005 8 24 0.0 1.6 0.00 0.00 0.00 63 1012.7
20260501162505 8 335 0.0 0.0 0.00 0.00 0.00 63 1012.7
20260501162004 8 319 0.0 0.0 0.00 0.00 0.00 61 1012.6
20260501161504 8 320 0.0 0.0 0.00 0.00 0.00 63 1012.6
20260501161003 8 319 0.0 0.0 0.00 0.00 0.00 61 1012.6
20260501160504 8 17 0.0 0.0 0.00 0.00 0.00 62 1012.7
20260501160005 8 89 0.0 1.6 0.00 0.00 0.00 63 1012.7
20260501155505 8 95 0.0 3.2 0.00 0.00 0.00 66 1012.7
20260501154004 7 32 0.0 0.0 0.00 0.00 0.00 68 1012.8
20260501153505 7 32 0.0 0.0 0.00 0.00 0.00 68 1012.9
20260501153006 7 32 0.0 3.2 0.00 0.00 0.00 67 1013.0
20260501152505 7 89 0.0 3.2 0.00 0.00 0.00 70 1013.0
20260501151505 7 34 0.0 8.0 0.00 0.00 0.00 72 1013.0
20260501151004 6 5 0.0 9.7 0.00 0.00 0.00 74 1013.0
20260501150504 6 38 0.0 9.7 0.00 0.00 0.00 73 1013.0
20260501150005 6 18 0.0 4.8 0.00 0.00 0.00 72 1013.1
20260501145503 6 10 0.0 6.4 0.00 0.00 0.00 73 1013.2
20260501145000 6 24 0.0 6.4 0.00 0.00 0.00 74 1013.2
20260501144504 6 22 0.0 0.0 0.00 0.00 0.00 74 1013.1
20260501144002 6 17 0.0 0.0 0.00 0.00 0.00 75 1013.1
20260501143004 6 15 0.0 1.6 0.00 0.00 0.00 77 1013.1
20260501142459 6 26 0.0 0.0 0.00 0.00 0.00 78 1013.2
20260501142000 5 10 0.0 6.4 0.00 0.00 0.00 77 1013.2